星链-31917 (STARLINK-31917 )

导读

STARLINK-31917是美国SpaceX星链互联网项目的卫星,于2024年5月6日发射入轨。星链计划旨在搭建全球卫星互联网,为偏远地区、灾害区域等提供高速网络服务。作为低轨星座的组成部分,该卫星运行在近地轨道,承担着星链网络数据传输、信号中转的任务,帮助星链系统完善全球覆盖密度,提升服务稳定性与覆盖范围。

基本信息
目录编号:
59669
目录名称:
STARLINK-31917
国际标识:
2024-084R
轨道中心:
EARTH
卫星名称:
星链-31917
卫星全名:
星链-31917 (STARLINK-31917 )
卫星状态:
在轨 (已飞行773 天)
发射日期:
2024-05-06 UTC
国别 :
美国 (US)
星等 :
--
轨道信息
数据来源 国际轨道数据 AOE轨道数据
星历时间 2026-06-17T20:56:33+0800
13小时前
查看轨道信息
2026-06-18T02:00:00+0800
8小时前
查看轨道信息
半长轴 6861.199km 6861.209km
偏心率 0.000182 0.0000516
轨道倾角 43.004° 42.995°
近地点辐角 276.619° 239.356°
升交点赤经 197.908° 196.707°
平近点角 83.446° 200.913°
近地点 481.813km 482.717km
远地点 484.311km 483.427km
周期 94.267分钟 94.267分钟
每日圈数 15.27576 15.275724
详细信息
固有亮度:
5
最大亮度:
1.5
卫星平台:
Starlink v2.0 mini
覆盖范围:
全球
运营商:
太空探索技术公司
运营商所在国:
美国
制造商(研发单位):
太空探索技术公司
制造商所在国:
美国
使用方式:
暂无
卫星简介
星链(Starlink)计划是由太空探索技术公司(SpaceX)提出的一个巨型低轨卫星互联网星座项目,计划在2019年至2024年间在太空搭建由约1.2万颗卫星组成的“星链”网络,其中1584颗将部署在地球上空550千米处的近地轨道,并从2020年开始工作。该卫星仍在工作。
2D轨道图
3D轨道图
轨道高度分析图
轨道倾角分析图
轨道综合分析图
查看轨道综合分析图